Regional Weather Roundup
Issued by NWS Newport/Morehead, NC

Current Version | Previous Version | Graphics & Text | Print | Product List | Glossary Off
Versions: 1 2 3 4 5 6 7 8 9 10 11 12 13 14 15 16 17 18 19 20 21 22 23 24 25 26 27 28 29 30 31 32 33 34 35 36 37 38 39 40 41 42 43 44 45 46 47 48 49 50
000 ASUS42 KMHX 222014 RWRMHX WEATHER ROUNDUP FOR EASTERN NORTH CAROLINA NATIONAL WEATHER SERVICE NEWPORT/MOREHEAD CITY NC 300 PM EST WED NOV 22 2017 NOTE: "FAIR" INDICATES FEW OR NO CLOUDS BELOW 12,000 FEET WITH NO SIGNIFICANT WEATHER AND/OR OBSTRUCTIONS TO VISIBILITY NCZ015>017-031-032-045>047-102-103-222100- NORTH COAST CITY SKY/WX TMP DP RH WIND PRES REMARKS EDENTON MOSUNNY 66 51 58 N10 29.96R ELIZABETH CITY MOSUNNY 63 50 62 N13 29.96R KITTY HAWK CLOUDY 58 46 63 N5 29.95R MANTEO CLOUDY 58 44 59 NE18G28 29.96R $$ NCZ045>047-081-094-103-104-222100- CENTRAL COAST CITY SKY/WX TMP DP RH WIND PRES REMARKS FRISCO SUNNY 62 54 74 N9G18 29.93R $$ NCZ095-097-098-100-101-222100- SOUTHERN COAST CITY SKY/WX TMP DP RH WIND PRES REMARKS BEAUFORT SUNNY 68 53 58 N13 29.93R CEDAR ISLAND NOT AVBL JACKSONVILLE SUNNY 69 49 48 N15 29.93S PINEY ISLAND NOT AVBL WILMINGTON SUNNY 71 49 45 N10 29.93F $$ NCZ011>013-027>030-043-044-078>080-089-090>093-098-222100- COASTAL PLAIN CITY SKY/WX TMP DP RH WIND PRES REMARKS AHOSKIE SUNNY 61 42 49 N6 29.97S CLINTON PTSUNNY 66 43 44 NW8G16 29.98S ELIZABETHTOWN NOT AVBL GOLDSBORO MOSUNNY 66 39 38 NW13 29.96S GREENVILLE SUNNY 64 43 45 N8 29.98F HAVELOCK NOT AVBL KENANSVILLE SUNNY 66 39 37 NW14 29.97R KINSTON SUNNY 66 37 34 N13 29.97S NEW BERN SUNNY 65 47 52 N13 29.95S RICHLANDS SUNNY 67 46 47 NW9 29.95R ROCKY MOUNT SUNNY 63 38 39 NW12 29.99S WASHINGTON SUNNY 65 45 48 N12 29.96S WHITEVILLE SUNNY 68 46 45 N6 29.95S $$ AMZ130-135-150-152-154-156-158-170-250-252-270-ANZ085-086-088-633-658-670-222100- MARINE OBSERVATIONS STATION/POSITION TIME TEMP WIND PRES WAVE SWELL AIR SEA DIR/SP/G HT/PER HT/PER (UTC) (F) (DEG/KT/KT) (MB) (FT/S) (FT/S) CHESAPEAKE LIGHT NOT AVBL 64 E VA BEACH 1950 59 62 340/ 23/ 27 1012.8 7/ 8 DUCK 1948 58 60 20/ 19/ 22 1013.7 2 E DUCK 2000 61 N/A 5/ 5 OREGON INLET 1942 59 56 350/ 19/ 24 1014.0 13E OREGON INLT 1948 65 N/A 6/ 9 3/ 9 HATTERAS CG 1948 59 60 20/ 19/ 23 1013.3 DIAMOND BUOY 2000 63 75 360/ 23/ 29 1013.1 CAPE LOOKOUT 2000 340/ 14/ 16 1013.6 BEAUFORT LAB 1948 66 60 360/ 10/ 14 1013.3 30 SE NEW RVR IN 1908 65 66 340/ 10/ 16 1013.1 30 SE NEW RVR IN 2000 66 N/A 5/ 8 2/11 27 SE WRIGHTSVLE 1908 66 68 350/ 10/ 16 1013.3 5 SE WRIGHTSVLE 1908 66 64 350/ 8/ 14 1013.4 225 S CAPE HAT 1950 74 76 340/ 14/ 16 1011.8 6/ 9 5/ 9 41 SE CHARLESTON 2000 66 74 360/ 12/ 14 1014.4 $$

USA.gov is the U.S. government's official web portal to all federal, state and local government web resources and services.